"Pseudo-MPEC" for C0JC0U5

Created 2023 Sep 21 11:22:03 UT using Find_Orb

Click here for an explanation of pseudo-MPECs

 
 Astrometry: 
     C0JC0U5* C2023 09 19.31918223 04 42.924+02 45 10.15   ~9J8b 21.77GVNEOCPV00
     C0JC0U5  C2023 09 19.32468623 04 40.375+02 45 37.87   ~9J8b 21.69GVNEOCPV00
     C0JC0U5  C2023 09 19.33018423 04 37.823+02 46 05.59   ~9J8b 21.55GVNEOCPV00
     C0JC0U5  C2023 09 19.33568223 04 35.245+02 46 33.02   ~9J8b 21.89GVNEOCPV00
     C0JC0U5 KC2023 09 19.38431 23 04 12.97 +02 50 35.5    ~9JA7 21.8 RoNEOCP291
     C0JC0U5 KC2023 09 19.38878 23 04 10.97 +02 50 58.0    ~9JA7 22.0 RoNEOCP291
     C0JC0U5 KC2023 09 19.39344 23 04 08.83 +02 51 20.8    ~9JA7 21.9 RoNEOCP291
     C0JC0U5 KC2023 09 20.16994622 59 06.968+03 52 00.37   ~9K4q 21.70GVNEOCPV06
     C0JC0U5 KC2023 09 20\F;KAstrometry=aD75nw@Predacted;qea(\k(/p$+1`H\wHQH?H21
     C0JC0U5 KC2023 09 20.17486022 59 04.981+03 52 22.22   ~9K4q 21.89GVNEOCPV06
     C0JC0U5 KC2023 09 20.17977222 59 02.987+03 52 44.08   ~9K4q 21.80GVNEOCPV06
     C0JC0U5 KC2023 09 209FVN:-IclickDYhere4+YqAKy+AZ/kMfformc=oexplanation;@H21
     C0JC0U5 KC2023 09 20.18468422 59 00.964+03 53 05.82   ~9K4q 21.95GVNEOCPV06
     C0JC0U5 KC2023 09 21.14410 22 53 26.17 +04 58 48.3    ~9L4q 22.5 RoNEOCP291
     C0JC0U5 KC2023 09 21.16049 22 53 20.39 +04 59 51.0    ~9L4q 22.0 RoNEOCP291
     C0JC0U5 KC2023 09 21.17697 22 53 14.57 +05 00 54.4    ~9L4q       oNEOCP291

Station data:
(291) LPL/Spacewatch II  (N31.961669 W111.599905)  US/Arizona.  Observers J.
   V. Scotti, R. S. McMillan. 1.8-m f/2.7 reflector + CCD.
(H21) Astronomical Research Observatory, Westfield  (N39.483054 W87.968270)
   US/Illinois.  Observer R. Holmes. Measurers S. Foglia, L. Buzzi, T.
   Linder, R. Holmes. 0.76-m f/3.0 astrograph + CCD0.81-m f/4.0 astrograph +
   CCD0.61-m f/4.5 astrograph + CCD0.40-m f/5.32 astrograph + CCD.
(V00) Kitt Peak-Bok  (N31.963125 W111.600190)  US/Arizona.  Observers T. A.
   Pruyne, B. M. Africano, E. J. Christensen, G. A. Farneth, D. C. Fuls, A.
   R. Gibbs, A. D. Grauer, H. Gröller, J. A. Johnson, R. A. Kowalski, S. M.
   Larson, G. J. Leonard, D. Rankin, R. L. Seaman, F. C. Shelly, K. W.
   Wierzchoś. 2.25-m reflector + 4x4K mosaic CCD.
(V06) Catalina Sky Survey-Kuiper  (N32.416844 W110.732550)  US/Arizona.
   Observers T. A. Pruyne, B. M. Africano, E. J. Christensen, G. A. Farneth,
   D. C. Fuls, A. R. Gibbs, A. D. Grauer, H. Gröller, J. A. Johnson, R. A.
   Kowalski, S. M. Larson, G. J. Leonard, D. Rankin, R. L. Seaman, F. C.
   Shelly, K. W. Wierzchoś. 1.55-m reflector + CCD.

Orbital elements:  C0JC0U5
   Perihelion 2023 Jun 24.59496 +/- 0.161 TT = 14:16:44 (JD 2460120.09496)
Epoch 2023 Sep 21.0 TT = JDT 2460208.5   Earth MOID: 0.0339      AutoNEOCP
M  82.94119403 +/- 0.28             (J2000 ecliptic)
n   0.93819526 +/- 0.00153          Peri.  246.22945 +/- 0.06
a   1.03341292 +/- 0.00113          Node   352.76592 +/- 0.0006
e   0.3099893 +/- 0.00173           Incl.   13.22819 +/- 0.08
P   1.05/383.71d           H 26.73  G  0.15   U  8.4
q 0.71306594 +/- 0.00101    Q 1.35375991 +/- 0.00327
From 16 observations 2023 Sept. 19-21 (44.6 hr); mean residual 0".18
Residuals in arcseconds: 
230919 V00  .06-  .21-    230919 291  .11-  .10+    230920 V06  .12-  .08-    
230919 V00  .10+  .12-    230920 V06  .05+  .18-    230921 291  .04+  .32+    
230919 V00  .11+  .03+    230920 H21  .36-  .19+    230921 291  .04-  .14-    
230919 V00  .34-  .08-    230920 V06  .19+  .14-    230921 291  .10+  .04-    
230919 291  .01+  .05+    230920 V06  .24+  .06-    
230919 291  .39+  .39+    230920 H21  .08-  .09-    

Ephemerides (geocentric):
Date (UTC) HH   RA             Dec           delta  r     elong  mag " sig PA
---- --------  ------------   ------------  ------ ------ -----  --- --------
2023 09 21 11  22 51 42.164   +05 19 08.17  .09284 1.0935 163.7 22.6 .368 117
2023 09 21 12  22 51 29.209   +05 21 40.01  .09310 1.0937 163.6 22.6 .361 115
2023 09 21 13  22 51 16.330   +05 24 10.95  .09336 1.0939 163.5 22.6 .354 114
2023 09 21 14  22 51 03.527   +05 26 41.00  .09363 1.0941 163.4 22.6 .346 113
2023 09 21 15  22 50 50.799   +05 29 10.16  .09389 1.0943 163.3 22.6 .338 111
2023 09 21 16  22 50 38.146   +05 31 38.45  .09416 1.0945 163.2 22.6 .330 110
2023 09 21 17  22 50 25.566   +05 34 05.87  .09442 1.0947 163.1 22.7 .322 108
2023 09 21 18  22 50 13.060   +05 36 32.43  .09468 1.0950 163.0 22.7 .314 106
2023 09 21 19  22 50 00.627   +05 38 58.13  .09495 1.0952 162.9 22.7 .305 104
2023 09 21 20  22 49 48.266   +05 41 22.98  .09521 1.0954 162.8 22.7 .297 102
2023 09 21 21  22 49 35.977   +05 43 46.98  .09548 1.0956 162.8 22.7 .288 100
2023 09 21 22  22 49 23.759   +05 46 10.15  .09574 1.0958 162.7 22.7 .279  98
2023 09 21 23  22 49 11.612   +05 48 32.49  .09601 1.0960 162.6 22.7 .271  95
2023 09 22 00  22 48 59.536   +05 50 54.00  .09627 1.0962 162.5 22.7 .263  93
2023 09 22 01  22 48 47.530   +05 53 14.69  .09654 1.0964 162.4 22.7 .255  90
2023 09 22 02  22 48 35.593   +05 55 34.57  .09681 1.0966 162.3 22.7 .247  87
2023 09 22 03  22 48 23.724   +05 57 53.64  .09707 1.0968 162.2 22.7 .240  84
2023 09 22 04  22 48 11.925   +06 00 11.91  .09734 1.0970 162.1 22.8 .233  80
2023 09 22 05  22 48 00.193   +06 02 29.38  .09760 1.0972 162.0 22.8 .227  76
2023 09 22 06  22 47 48.529   +06 04 46.07  .09787 1.0974 162.0 22.8 .221  72
2023 09 22 07  22 47 36.931   +06 07 01.97  .09814 1.0976 161.9 22.8 .217  68
2023 09 22 08  22 47 25.401   +06 09 17.09  .09841 1.0978 161.8 22.8 .214  63
2023 09 22 09  22 47 13.936   +06 11 31.45  .09867 1.0980 161.7 22.8 .211  58
2023 09 22 10  22 47 02.537   +06 13 45.03  .09894 1.0982 161.6 22.8 .211  54
2023 09 22 11  22 46 51.203   +06 15 57.86  .09921 1.0984 161.5 22.8 .211  49
2023 09 22 12  22 46 39.934   +06 18 09.93  .09948 1.0986 161.4 22.8 .213  44
2023 09 22 13  22 46 28.729   +06 20 21.25  .09974 1.0988 161.3 22.8 .216  39
2023 09 22 14  22 46 17.588   +06 22 31.83  .10001 1.0990 161.3 22.8 .221  34
2023 09 22 15  22 46 06.510   +06 24 41.67  .10028 1.0992 161.2 22.8 .228  29
2023 09 22 16  22 45 55.496   +06 26 50.77  .10055 1.0994 161.1 22.9 .236  25
2023 09 22 17  22 45 44.544   +06 28 59.15  .10082 1.0996 161.0 22.9 .245  20
2023 09 22 18  22 45 33.654   +06 31 06.81  .10109 1.0998 160.9 22.9 .256  16
2023 09 22 19  22 45 22.826   +06 33 13.75  .10135 1.1000 160.8 22.9 .267  13
2023 09 22 20  22 45 12.059   +06 35 19.97  .10162 1.1002 160.8 22.9 .280   9
2023 09 22 21  22 45 01.353   +06 37 25.49  .10189 1.1004 160.7 22.9 .294   6
2023 09 22 22  22 44 50.707   +06 39 30.31  .10216 1.1006 160.6 22.9 .308   3
2023 09 22 23  22 44 40.122   +06 41 34.43  .10243 1.1008 160.5 22.9 .324   0
2023 09 23 00  22 44 29.596   +06 43 37.86  .10270 1.1010 160.4 22.9 .340 178
2023 09 23 01  22 44 19.130   +06 45 40.60  .10297 1.1012 160.4 22.9 .357 176
2023 09 23 02  22 44 08.722   +06 47 42.67  .10324 1.1014 160.3 22.9 .375 173
2023 09 23 03  22 43 58.373   +06 49 44.05  .10351 1.1016 160.2 23.0 .393 171
2023 09 23 04  22 43 48.082   +06 51 44.76  .10378 1.1018 160.1 23.0 .412 170
2023 09 23 05  22 43 37.848   +06 53 44.81  .10405 1.1020 160.0 23.0 .432 168
2023 09 23 06  22 43 27.672   +06 55 44.19  .10432 1.1022 160.0 23.0 .452 166
2023 09 23 07  22 43 17.553   +06 57 42.92  .10460 1.1024 159.9 23.0 .472 165
2023 09 23 08  22 43 07.491   +06 59 40.99  .10487 1.1026 159.8 23.0 .493 163
2023 09 23 09  22 42 57.485   +07 01 38.41  .10514 1.1028 159.7 23.0 .514 162
2023 09 23 10  22 42 47.534   +07 03 35.19  .10541 1.1030 159.6 23.0 .536 161